Spokane, WA

10:17 PM PST on December 10, 2017 (GMT -0800)
Spokane International

Weather History for KGEG - May, 2013

Change the Weather History Date:

Sunday, May 19, 2013

  Actual Average Record
Temperature  
Mean Temperature 56 °F 56 °F  
Max Temperature 64 °F 68 °F 85 °F (1897)
Min Temperature 48 °F 45 °F 32 °F (2003)
Degree Days  
Heating Degree Days 9 9  
Month to date heating degree days 124 225  
Since 1 July heating degree days 5952 6361  
Cooling Degree Days 0 0  
Month to date cooling degree days 30 0  
Year to date cooling degree days 30 0  
Growing Degree Days 6 (Base 50)    
Moisture  
Dew Point 42 °F    
Average Humidity 64    
Maximum Humidity 80    
Minimum Humidity 48    
Precipitation  
Precipitation T in 0.06 in 1.62 in (1907)
Month to date precipitation 0.26 0.91  
Year to date precipitation 4.39 6.92  
Snow  
Snow 0.00 in 0.00 in T in (1975)
Month to date snowfall 0.0 0.1  
Since 1 July snowfall 43.5 44.9  
Snow Depth 0.00 in    
Sea Level Pressure  
Sea Level Pressure 30.21 in    
Wind  
Wind Speed 6 mph (SSW)    
Max Wind Speed 21 mph    
Max Gust Speed 25 mph    
Visibility 10 miles    
Events Rain    
T = Trace of Precipitation, MM = Missing Value Source: NWS Daily Summary

Daily Weather History Graph

Daily Weather History Graph

Search for Another Location

Airport or City:

Trip Planner

Search our weather history database for the weather conditions in past years. The results will help you decide how hot, cold, wet, or windy it might be!

Date:

Astronomy

May. 19, 2013 Rise Set
Actual Time 5:07 AM PDT 8:26 PM PDT
Civil Twilight 4:30 AM PDT 9:03 PM PDT
Nautical Twilight 3:41 AM PDT 9:53 PM PDT
Astronomical Twilight 2:38 AM PDT 10:56 PM PDT
Moon 2:11 PM PDT (5/19) 1:59 AM PDT (5/19)
Length of Visible Light 16h 33m
Length of Day
15h 18m
Waxing Gibbous, 66% of the Moon is Illuminated
May 19
Waxing Gibbous
May 24
Full
May 31
Last Quarter
Jun 8
New
Jun 16
First Quarter

Hourly Weather History & Observations

Time (PDT) Temp. Dew Point Humidity Pressure Visibility Wind Dir Wind Speed Gust Speed Precip Events Conditions
12:53 AM 51.1 °F 39.9 °F 66% 30.13 in 10.0 mi SSW 6.9 mph - N/A   Overcast
1:53 AM 51.1 °F 39.9 °F 66% 30.14 in 10.0 mi South 6.9 mph - N/A   Overcast
2:53 AM 50.0 °F 41.0 °F 71% 30.15 in 10.0 mi Calm Calm - N/A   Overcast
3:53 AM 50.0 °F 41.0 °F 71% 30.16 in 10.0 mi SE 6.9 mph - N/A   Overcast
4:53 AM 48.2 °F 42.8 °F 82% 30.18 in 10.0 mi SE 5.8 mph - N/A   Overcast
5:53 AM 48.0 °F 39.9 °F 74% 30.20 in 10.0 mi SSW 9.2 mph - N/A   Overcast
6:53 AM 48.0 °F 39.9 °F 74% 30.21 in 10.0 mi South 8.1 mph - N/A   Mostly Cloudy
7:53 AM 48.9 °F 41.0 °F 74% 30.22 in 10.0 mi South 9.2 mph - N/A   Mostly Cloudy
8:53 AM 52.0 °F 39.9 °F 63% 30.22 in 10.0 mi SSW 5.8 mph - N/A   Mostly Cloudy
9:53 AM 54.0 °F 41.0 °F 62% 30.24 in 10.0 mi SSW 9.2 mph - N/A   Mostly Cloudy
10:53 AM 57.0 °F 42.1 °F 57% 30.24 in 10.0 mi South 5.8 mph - N/A   Overcast
11:37 AM 60.8 °F 42.8 °F 52% 30.23 in 10.0 mi Variable 5.8 mph - N/A   Mostly Cloudy
11:53 AM 60.8 °F 42.8 °F 52% 30.23 in 10.0 mi SW 5.8 mph - N/A   Mostly Cloudy
12:53 PM 60.8 °F 42.8 °F 52% 30.22 in 10.0 mi SW 6.9 mph - N/A   Mostly Cloudy
1:53 PM 62.1 °F 42.1 °F 48% 30.21 in 10.0 mi SSW 3.5 mph - N/A   Mostly Cloudy
2:53 PM 57.0 °F 48.0 °F 72% 30.23 in 10.0 mi SW 12.7 mph - 0.00 in Rain Light Rain
3:53 PM 63.0 °F 46.0 °F 54% 30.22 in 10.0 mi SW 11.5 mph - 0.00 in   Mostly Cloudy
4:53 PM 61.0 °F 43.0 °F 52% 30.22 in 10.0 mi SW 9.2 mph - N/A   Mostly Cloudy
5:53 PM 62.1 °F 43.0 °F 50% 30.22 in 10.0 mi SW 6.9 mph - N/A   Mostly Cloudy
6:53 PM 62.1 °F 43.0 °F 50% 30.22 in 10.0 mi SW 9.2 mph - N/A   Scattered Clouds
7:53 PM 59.0 °F 42.1 °F 53% 30.24 in 10.0 mi WNW 9.2 mph - N/A   Mostly Cloudy
8:53 PM 55.4 °F 44.6 °F 67% 30.23 in 10.0 mi Calm Calm - N/A   Mostly Cloudy
9:53 PM 55.9 °F 44.1 °F 64% 30.24 in 10.0 mi Calm Calm - N/A   Scattered Clouds
10:53 PM 52.0 °F 44.1 °F 74% 30.24 in 10.0 mi Calm Calm - N/A   Scattered Clouds
11:53 PM 51.1 °F 43.0 °F 74% 30.24 in 10.0 mi Calm Calm - N/A   Scattered Clouds